Total_Precipitation_Accumulation
0.00 0.00 0.00 0.00 0.00 0.00 0.00 0.00 0.00 0.00 0.00 0.00 0.03 0.00 0.00 0.03 0.03 0.05 0.02 0.00 0.00 0.00 0.00 0.00 0.00 0.00 0.00 0.00 0.00 0.00 0.00 0.00 0.00 0.00 0.00 0.00 0.00 0.00 0.00 0.00 0.00 0.00 0.00 0.00 0.00 0.00 0.00 0.00 0.00 0.00 0.00 0.00 0.00 0.01 0.01 0.00 0.00 0.00 0.00 0.00 0.00 0.01 0.00 0.01 0.02 0.01 0.01 0.00 0.00 0.00 0.00 0.00 0.00 0.00 0.00 0.00 0.01 0.01 0.00 0.01 0.01 0.01 0.01 0.02 0.01
0.00 0.00 0.00 0.00 0.00 0.00 0.00 0.00 0.00 0.00 0.00 0.00 0.00 0.00 0.00 0.04 0.00 0.00 0.00 0.01 0.00 0.00 0.00 0.00 0.01 0.00 0.00 0.00 0.01 0.00 0.00 0.00 0.00 0.00 0.00 0.00 0.00 0.00 0.00 0.00 0.00 0.00 0.00 0.00 0.00 0.00 0.00 0.00 0.00 0.00 0.00 0.00 0.03 0.01 0.00 0.00 0.00 0.00 0.00 0.00 0.01 0.01 0.00 0.01 0.01 0.02 0.01 0.01 0.01 0.00 0.00 0.00 0.00 0.00 0.00 0.00 0.02 0.02 0.01 0.01 0.00 0.00 0.00 0.00 0.02
0.00 0.00 0.00 0.00 0.00 0.00 0.00 0.00 0.00 0.00 0.00 0.00 0.02 0.02 0.00 0.00 0.00 0.00 0.01 0.05 0.02 0.02 0.02 0.02 0.01 0.00 0.01 0.01 0.00 0.00 0.00 0.00 0.00 0.00 0.00 0.00 0.00 0.00 0.00 0.00 0.00 0.00 0.00 0.00 0.00 0.00 0.00 0.00 0.00 0.00 0.00 0.00 0.00 0.00 0.00 0.00 0.00 0.00 0.00 0.00 0.00 0.00 0.01 0.00 0.01 0.03 0.02 0.00 0.00 0.00 0.00 0.01 0.00 0.01 0.00 0.00 0.00 0.01 0.01 0.02 0.04 0.02 0.01 0.00 0.00
0.01 0.00 0.00 0.00 0.00 0.00 0.00 0.00 0.00 0.00 0.00 0.00 0.00 0.00 0.00 0.00 0.00 0.01 0.00 0.01 0.01 0.02 0.02 0.02 0.02 0.03 0.03 0.02 0.02 0.02 0.02 0.01 0.00 0.00 0.00 0.00 0.00 0.00 0.00 0.00 0.00 0.00 0.00 0.00 0.00 0.00 0.00 0.00 0.00 0.00 0.00 0.00 0.00 0.00 0.00 0.00 0.00 0.01 0.00 0.00 0.01 0.01 0.01 0.01 0.03 0.03 0.04 0.01 0.00 0.00 0.00 0.00 0.01 0.00 0.00 0.00 0.01 0.01 0.02 0.01 0.00 0.00 0.00 0.00 0.00
0.00 0.00 0.00 0.00 0.00 0.00 0.00 0.00 0.01 0.01 0.01 0.00 0.00 0.00 0.00 0.00 0.00 0.00 0.00 0.00 0.00 0.03 0.05 0.06 0.05 0.02 0.01 0.02 0.04 0.05 0.03 0.01 0.00 0.00 0.00 0.00 0.00 0.00 0.00 0.00 0.00 0.00 0.00 0.00 0.00 0.00 0.00 0.00 0.00 0.00 0.00 0.00 0.00 0.00 0.00 0.00 0.02 0.03 0.01 0.02 0.01 0.00 0.02 0.05 0.05 0.03 0.02 0.04 0.01 0.01 0.00 0.00 0.00 0.00 0.00 0.01 0.02 0.00 0.00 0.00 0.00 0.00 0.00 0.01 0.02
0.03 0.09 0.04 0.02 0.00 0.00 0.00 0.01 0.01 0.01 0.00 0.00 0.00 0.00 0.00 0.00 0.00 0.00 0.01 0.03 0.05 0.07 0.07 0.04 0.01 0.00 0.01 0.02 0.03 0.03 0.01 0.00 0.00 0.00 0.00 0.00 0.00 0.00 0.00 0.00 0.00 0.00 0.00 0.00 0.00 0.00 0.00 0.00 0.00 0.00 0.00 0.00 0.00 0.00 0.00 0.01 0.00 0.00 0.00 0.05 0.04 0.08 0.07 0.04 0.02 0.01 0.04 0.03 0.04 0.06 0.03 0.03 0.03 0.01 0.01 0.01 0.01 0.02 0.02 0.01 0.00 0.01 0.01 0.01 0.01
0.00 0.00 0.04 0.07 0.07 0.02 0.01 0.00 0.00 0.00 0.02 0.03 0.19 0.01 0.01 0.00 0.00 0.01 0.03 0.02 0.01 0.02 0.01 0.00 0.00 0.00 0.01 0.00 0.00 0.00 0.00 0.00 0.00 0.00 0.00 0.01 0.00 0.00 0.00 0.00 0.00 0.00 0.00 0.01 0.01 0.00 0.01 0.00 0.00 0.01 0.00 0.01 0.00 0.00 0.01 0.01 0.01 0.01 0.01 0.07 0.04 0.03 0.01 0.02 0.01 0.01 0.06 0.04 0.01 0.01 0.05 0.01 0.01 0.06 0.01 0.00 0.01 0.00 0.02 0.02 0.02 0.02 0.01 0.01 0.02
0.00 0.00 0.01 0.00 0.00 0.01 0.00 0.00 0.00 0.00 0.00 0.00 0.00 0.00 0.00 0.00 0.00 0.02 0.02 0.01 0.00 0.00 0.00 0.00 0.00 0.00 0.00 0.00 0.00 0.00 0.00 0.00 0.00 0.00 0.00 0.00 0.00 0.00 0.00 0.00 0.00 0.00 0.00 0.00 0.00 0.00 0.00 0.00 0.00 0.00 0.00 0.01 0.01 0.01 0.00 0.07 0.05 0.04 0.01 0.01 0.01 0.00 0.01 0.00 0.00 0.01 0.01 0.01 0.02 0.03 0.01 0.01 0.01 0.02 0.01 0.02 0.00 0.02 0.01 0.01 0.02 0.01 0.03 0.08 0.04
0.01 0.02 0.01 0.02 0.01 0.01 0.01 0.00 0.00 0.00 0.00 0.08 0.18 0.01 0.00 0.00 0.00 0.00 0.01 0.01 0.00 0.00 0.00 0.00 0.00 0.00 0.00 0.00 0.00 0.00 0.00 0.00 0.00 0.00 0.00 0.00 0.00 0.00 0.00 0.00 0.00 0.00 0.00 0.00 0.00 0.01 0.02 0.01 0.01 0.00 0.01 0.00 0.00 0.00 0.00 0.00 0.00 0.01 0.01 0.01 0.01 0.00 0.00 0.00 0.00 0.00 0.01 0.02 0.01 0.01 0.01 0.02 0.02 0.03 0.02 0.01 0.05 0.06 0.05 0.01 0.01 0.01 0.01 0.03 0.07
0.00 0.00 0.01 0.01 0.00 0.04 0.00 0.00 0.00 0.00 0.00 0.00 0.00 0.00 0.00 0.00 0.00 0.00 0.00 0.00 0.00 0.00 0.00 0.00 0.00 0.00 0.00 0.00 0.00 0.00 0.00 0.00 0.00 0.00 0.00 0.00 0.00 0.02 0.00 0.00 0.00 0.00 0.01 0.01 0.03 0.04 0.02 0.02 0.01 0.00 0.00 0.00 0.00 0.03 0.01 0.01 0.00 0.00 0.01 0.00 0.01 0.01 0.00 0.00 0.00 0.01 0.00 0.01 0.01 0.01 0.03 0.04 0.03 0.02 0.03 0.03 0.02 0.03 0.05 0.02 0.04 0.07 0.02 0.02 0.03
0.00 0.00 0.00 0.00 0.01 0.00 0.00 0.00 0.00 0.00 0.00 0.00 0.00 0.00 0.00 0.00 0.00 0.00 0.00 0.00 0.00 0.00 0.00 0.00 0.01 0.01 0.00 0.00 0.00 0.00 0.00 0.00 0.00 0.00 0.00 0.00 0.04 0.02 0.03 0.02 0.01 0.00 0.03 0.07 0.13 0.02 0.02 0.00 0.01 0.01 0.00 0.00 0.01 0.02 0.01 0.00 0.00 0.00 0.00 0.00 0.00 0.01 0.00 0.00 0.00 0.01 0.02 0.01 0.03 0.02 0.03 0.02 0.02 0.02 0.03 0.03 0.04 0.07 0.04 0.02 0.03 0.05 0.04 0.04 0.03
0.01 0.02 0.01 0.00 0.00 0.00 0.00 0.00 0.00 0.00 0.00 0.00 0.00 0.00 0.00 0.00 0.00 0.00 0.00 0.00 0.00 0.00 0.01 0.03 0.02 0.00 0.01 0.00 0.02 0.01 0.00 0.00 0.00 0.00 0.00 0.02 0.02 0.08 0.07 0.01 0.09 0.05 0.13 0.10 0.03 0.01 0.01 0.03 0.02 0.01 0.04 0.03 0.01 0.02 0.02 0.00 0.00 0.00 0.00 0.00 0.00 0.00 0.00 0.01 0.02 0.02 0.01 0.03 0.04 0.04 0.02 0.01 0.03 0.02 0.06 0.05 0.05 0.03 0.02 0.05 0.03 0.05 0.06 0.03 0.02
0.00 0.00 0.01 0.00 0.00 0.00 0.00 0.00 0.00 0.00 0.00 0.00 0.00 0.00 0.00 0.00 0.00 0.00 0.00 0.00 0.00 0.00 0.00 0.00 0.00 0.00 0.00 0.00 0.00 0.02 0.01 0.00 0.00 0.00 0.01 0.04 0.10 0.16 0.37 0.54 0.28 0.22 0.03 0.06 0.18 0.02 0.03 0.03 0.03 0.03 0.03 0.01 0.03 0.03 0.04 0.02 0.01 0.01 0.02 0.02 0.03 0.04 0.03 0.03 0.03 0.07 0.07 0.06 0.05 0.02 0.02 0.02 0.03 0.03 0.02 0.02 0.02 0.04 0.06 0.06 0.05 0.05 0.03 0.01 0.00
0.00 0.00 0.00 0.00 0.00 0.00 0.00 0.00 0.00 0.00 0.00 0.00 0.00 0.00 0.00 0.00 0.00 0.00 0.00 0.00 0.00 0.00 0.00 0.00 0.00 0.00 0.00 0.00 0.00 0.00 0.00 0.00 0.00 0.02 0.06 0.25 0.26 0.18 2.18 1.18 0.34 0.05 0.05 0.06 0.02 0.03 0.05 0.04 0.04 0.03 0.06 0.08 0.11 0.08 0.09 0.05 0.03 0.05 0.08 0.11 0.07 0.02 0.02 0.02 0.04 0.07 0.06 0.03 0.04 0.06 0.03 0.02 0.02 0.03 0.03 0.04 0.03 0.04 0.03 0.04 0.04 0.02 0.01 0.01 0.01
0.00 0.00 0.00 0.00 0.00 0.00 0.00 0.00 0.00 0.00 0.00 0.00 0.00 0.00 0.00 0.00 0.00 0.00 0.00 0.00 0.00 0.00 0.01 0.03 0.00 0.00 0.00 0.03 0.00 0.00 0.00 0.00 0.00 0.00 0.02 0.33 0.08 0.22 1.62 2.35 0.54 0.19 0.18 0.05 0.02 0.01 0.01 0.02 0.05 0.18 0.21 0.38 0.18 0.09 0.12 0.09 0.07 0.03 0.04 0.01 0.02 0.04 0.06 0.04 0.06 0.05 0.03 0.02 0.04 0.06 0.02 0.02 0.02 0.02 0.04 0.01 0.01 0.02 0.02 0.01 0.01 0.01 0.00 0.00 0.00
0.00 0.00 0.00 0.00 0.00 0.00 0.00 0.00 0.00 0.00 0.00 0.00 0.00 0.00 0.00 0.00 0.00 0.00 0.00 0.00 0.12 0.31 0.00 0.00 0.00 0.02 0.00 0.00 0.01 0.01 0.00 0.00 0.00 0.00 0.09 0.09 0.14 0.37 0.59 1.68 0.45 0.21 0.41 0.61 0.46 0.13 0.06 0.11 0.16 0.21 0.15 0.10 0.12 0.04 0.06 0.05 0.05 0.03 0.12 0.06 0.05 0.04 0.02 0.01 0.00 0.01 0.02 0.05 0.02 0.02 0.02 0.02 0.00 0.01 0.04 0.03 0.03 0.01 0.00 0.00 0.00 0.00 0.01 0.00 0.01
0.00 0.00 0.00 0.00 0.00 0.00 0.00 0.00 0.00 0.00 0.00 0.00 0.00 0.00 0.00 0.00 0.00 0.00 0.02 0.16 0.04 0.03 0.00 0.00 0.00 0.00 0.00 0.00 0.00 0.01 0.00 0.00 0.00 0.00 0.00 0.00 0.02 0.21 1.33 0.21 0.41 0.68 0.45 0.46 0.30 0.34 0.29 0.18 0.12 0.10 0.09 0.04 0.04 0.04 0.04 0.05 0.07 0.06 0.03 0.02 0.01 0.05 0.01 0.05 0.00 0.01 0.00 0.00 0.00 0.00 0.00 0.00 0.00 0.00 0.00 0.00 0.00 0.02 0.01 0.01 0.00 0.00 0.01 0.01 0.00
0.00 0.00 0.00 0.00 0.00 0.00 0.00 0.00 0.00 0.00 0.00 0.00 0.00 0.00 0.00 0.00 0.00 0.01 0.01 0.01 0.01 0.00 0.01 0.02 0.01 0.00 0.01 0.01 0.01 0.00 0.00 0.00 0.00 0.00 0.00 0.00 0.38 0.97 0.09 0.08 0.13 0.45 1.36 0.86 0.56 0.40 0.18 0.16 0.07 0.03 0.02 0.02 0.12 0.02 0.04 0.04 0.02 0.00 0.00 0.01 0.03 0.02 0.02 0.01 0.02 0.01 0.00 0.00 0.00 0.00 0.00 0.00 0.00 0.00 0.00 0.00 0.00 0.00 0.00 0.03 0.01 0.02 0.01 0.01 0.01
0.00 0.00 0.00 0.00 0.00 0.00 0.00 0.00 0.00 0.00 0.00 0.00 0.00 0.00 0.00 0.00 0.00 0.00 0.00 0.00 0.00 0.00 0.01 0.01 0.01 0.01 0.02 0.03 0.01 0.01 0.04 0.03 0.00 0.00 0.00 0.01 0.47 0.85 0.90 0.12 0.08 0.09 0.19 0.16 0.06 0.07 0.04 0.02 0.02 0.01 0.01 0.01 0.01 0.00 0.00 0.02 0.01 0.00 0.00 0.01 0.02 0.00 0.01 0.02 0.05 0.06 0.06 0.01 0.03 0.01 0.00 0.00 0.00 0.00 0.01 0.00 0.00 0.00 0.00 0.03 0.02 0.03 0.01 0.01 0.00
0.00 0.00 0.00 0.00 0.00 0.00 0.00 0.00 0.00 0.00 0.00 0.00 0.00 0.00 0.00 0.00 0.00 0.00 0.00 0.00 0.00 0.02 0.03 0.01 0.01 0.01 0.02 0.01 0.01 0.01 0.02 0.05 0.01 0.00 0.00 0.01 0.03 0.64 1.32 0.50 0.18 0.08 0.03 0.01 0.02 0.02 0.03 0.03 0.02 0.01 0.01 0.01 0.01 0.05 0.03 0.01 0.01 0.00 0.01 0.01 0.00 0.00 0.18 0.03 0.01 0.00 0.02 0.00 0.00 0.00 0.00 0.00 0.00 0.00 0.00 0.00 0.00 0.00 0.00 0.02 0.03 0.02 0.03 0.01 0.04
0.00 0.00 0.00 0.00 0.00 0.00 0.00 0.00 0.00 0.00 0.00 0.00 0.00 0.00 0.00 0.00 0.00 0.00 0.00 0.00 0.01 0.00 0.01 0.01 0.00 0.00 0.00 0.01 0.01 0.02 0.01 0.03 0.04 0.00 0.00 0.01 0.24 0.64 0.18 1.19 0.90 0.33 0.15 0.17 0.05 0.03 0.03 0.14 0.02 0.01 0.01 0.00 0.00 0.00 0.00 0.00 0.00 0.01 0.02 0.01 0.15 0.02 0.41 0.14 0.04 0.01 0.01 0.00 0.01 0.00 0.00 0.00 0.00 0.00 0.00 0.00 0.00 0.00 0.00 0.00 0.00 0.01 0.05 0.00 0.03
0.00 0.00 0.00 0.00 0.00 0.00 0.00 0.00 0.00 0.00 0.00 0.00 0.00 0.00 0.00 0.00 0.00 0.00 0.00 0.02 0.04 0.02 0.02 0.01 0.00 0.00 0.00 0.00 0.01 0.01 0.00 0.00 0.01 0.01 0.01 0.02 0.08 0.11 0.65 0.67 0.03 0.03 0.05 0.08 0.11 0.15 0.02 0.09 0.02 0.00 0.00 0.00 0.00 0.00 0.00 0.00 0.00 0.01 0.09 0.03 0.32 0.87 1.06 0.44 0.30 0.06 0.03 0.01 0.00 0.00 0.00 0.00 0.00 0.00 0.00 0.01 0.00 0.00 0.00 0.00 0.00 0.00 0.02 0.25 0.15
0.00 0.00 0.00 0.00 0.00 0.00 0.00 0.00 0.00 0.01 0.00 0.00 0.02 0.02 0.00 0.01 0.01 0.02 0.01 0.02 0.01 0.01 0.01 0.01 0.00 0.00 0.27 0.41 0.00 0.01 0.01 0.01 0.01 0.04 0.04 0.03 0.10 0.12 0.42 0.38 0.02 0.02 0.08 0.05 0.06 0.07 0.08 0.03 0.01 0.00 0.00 0.00 0.00 0.01 0.00 0.00 0.00 0.00 0.00 0.01 0.71 1.58 1.08 0.74 0.33 0.09 0.03 0.02 0.01 0.01 0.00 0.00 0.00 0.00 0.00 0.00 0.00 0.00 0.00 0.00 0.00 0.04 0.23 0.29 0.21
0.00 0.00 0.00 0.00 0.00 0.00 0.00 0.01 0.00 0.00 0.00 0.00 0.01 0.01 0.02 0.00 0.00 0.03 0.07 0.22 0.57 0.67 0.69 0.76 0.71 0.54 0.01 0.01 0.02 0.03 0.18 0.51 0.79 0.11 1.43 1.11 0.16 0.09 0.02 0.02 0.07 0.03 0.05 0.13 0.16 0.18 0.21 0.01 0.00 0.02 0.03 0.07 0.04 0.04 0.02 0.01 0.03 0.01 0.01 0.01 0.65 2.42 1.16 0.81 0.12 0.09 0.12 0.02 0.02 0.01 0.01 0.00 0.00 0.00 0.00 0.00 0.00 0.00 0.04 0.05 0.09 0.20 0.15 0.15 0.13
0.00 0.01 0.01 0.00 0.00 0.00 0.00 0.00 0.01 0.03 0.02 0.01 0.01 0.01 0.00 0.16 0.38 0.50 0.63 0.55 0.35 0.10 0.13 0.24 0.28 0.19 0.21 0.17 0.11 0.17 0.39 0.52 0.47 0.23 0.31 0.15 0.09 0.09 0.02 0.03 0.23 0.13 0.04 0.08 0.05 0.10 0.03 0.03 0.01 0.09 0.09 0.10 0.09 0.02 0.04 0.03 0.01 0.03 0.02 0.02 1.04 2.98 0.53 0.15 0.08 0.76 0.15 0.04 0.03 0.02 0.01 0.01 0.02 0.03 0.05 0.28 0.05 0.02 0.10 0.32 0.46 0.28 0.16 0.24 0.29
0.81 1.03 0.81 0.76 0.58 0.31 0.15 0.13 0.22 0.35 0.41 0.52 0.66 0.74 0.77 0.76 0.66 0.52 0.34 0.43 0.39 0.40 0.38 0.14 0.19 0.24 0.17 0.17 0.30 0.41 0.36 0.49 0.43 0.27 0.28 0.29 0.16 0.08 0.05 0.05 0.15 0.15 0.13 0.06 0.03 0.02 0.01 0.01 0.01 0.01 0.04 0.06 0.06 0.07 0.06 0.06 0.02 0.03 0.01 0.04 0.37 0.31 0.12 0.13 0.27 0.29 0.08 0.05 0.03 0.02 0.01 0.01 0.35 0.57 0.58 0.33 0.38 0.18 0.20 0.29 0.33 0.39 0.50 0.46 0.28
1.53 1.54 1.37 1.40 1.41 1.09 0.99 1.00 0.94 0.77 0.65 0.61 0.59 0.45 0.38 0.52 0.40 0.46 0.39 0.35 0.28 0.20 0.15 0.21 0.18 0.17 0.22 0.23 0.35 0.26 0.23 0.20 0.19 0.23 0.15 0.06 0.15 0.14 0.17 0.21 0.20 0.30 0.14 0.05 0.10 0.24 0.18 0.08 0.09 0.04 0.02 0.03 0.03 0.02 0.02 0.03 0.05 0.05 0.08 0.09 0.13 0.11 0.08 0.06 0.07 0.20 0.03 0.04 0.03 0.03 0.03 0.24 0.85 0.96 0.97 0.48 0.55 0.46 0.33 0.40 0.42 0.34 0.22 0.20 0.18
0.50 0.35 0.36 0.43 0.40 0.37 0.33 0.24 0.35 0.44 0.50 0.37 0.35 0.18 0.12 0.15 0.19 0.12 0.05 0.04 0.12 0.16 0.10 0.09 0.11 0.16 0.17 0.37 0.39 0.33 0.27 0.22 0.24 0.41 0.34 0.22 0.15 0.12 0.48 0.68 1.28 1.13 0.35 0.17 0.19 0.19 0.41 1.05 1.45 1.54 1.41 0.27 0.15 0.20 0.24 0.19 0.26 0.15 0.18 0.19 0.11 0.16 0.12 0.09 0.12 0.17 0.13 0.12 0.16 0.20 0.46 0.97 1.66 1.49 0.65 0.31 0.20 0.37 0.40 0.38 0.36 0.40 0.29 0.33 0.38
0.73 0.40 0.28 0.23 0.08 0.10 0.19 0.42 0.40 0.33 0.33 0.21 0.10 0.18 0.06 0.03 0.02 0.09 0.05 0.04 0.09 0.14 0.33 0.37 0.43 0.57 0.65 0.97 1.33 1.49 1.45 1.26 0.88 1.08 2.16 2.46 2.43 2.32 2.00 1.53 1.13 0.92 0.86 0.88 1.52 1.77 1.67 1.33 1.59 0.93 0.61 0.26 0.30 0.21 0.29 0.25 0.22 0.19 0.16 0.17 0.12 0.12 0.15 0.21 0.20 0.19 0.19 0.46 0.86 0.76 1.07 1.71 1.19 0.89 0.70 0.62 0.55 0.32 0.24 0.32 0.21 0.41 0.37 0.58 0.23
0.97 1.03 0.67 0.63 0.68 0.69 0.49 0.38 0.23 0.23 0.24 0.09 0.12 0.16 0.07 0.09 0.06 0.13 0.21 0.12 0.22 0.33 0.35 0.66 0.64 0.55 0.56 0.57 0.72 0.54 0.60 0.54 1.11 1.67 1.45 1.26 0.76 0.55 0.67 0.73 0.87 1.42 2.07 2.24 1.85 2.13 1.61 1.31 0.56 0.38 0.29 0.26 0.35 0.32 0.41 0.32 0.29 0.36 0.30 0.28 0.23 0.29 0.18 0.26 0.30 0.39 0.49 0.49 0.67 1.10 1.36 1.60 1.01 0.60 0.37 0.31 0.25 0.23 0.14 0.20 0.43 0.43 0.67 0.31 0.23
0.67 0.87 1.56 1.46 1.22 1.14 0.92 0.87 1.06 1.03 1.10 1.10 0.56 0.42 0.31 0.32 0.25 0.32 0.18 0.22 0.11 0.06 0.09 0.04 0.24 0.35 0.65 0.95 0.85 0.99 0.99 0.90 0.37 0.60 0.29 0.10 0.22 0.22 0.37 0.73 1.19 1.11 1.07 1.17 1.45 1.87 1.52 0.59 0.37 0.32 0.43 0.87 0.92 0.50 0.31 0.29 0.28 0.28 0.23 0.21 0.15 0.19 0.41 0.35 0.47 0.52 0.75 1.08 1.34 1.42 1.40 0.79 0.55 0.55 0.60 0.37 0.25 0.23 0.47 0.53 0.48 0.45 0.39 0.40 0.67
0.28 0.24 0.28 0.40 0.59 0.67 0.89 1.25 1.53 1.52 1.32 1.46 1.29 1.10 1.16 0.90 0.68 0.60 0.68 0.86 0.81 0.66 0.61 0.84 0.77 0.91 0.81 0.78 0.65 0.65 0.22 0.07 0.11 0.39 0.46 0.43 1.32 1.66 1.90 1.67 1.17 0.96 0.43 0.38 0.61 0.69 0.65 0.59 0.41 0.60 0.87 0.80 0.36 0.35 0.52 0.41 0.42 0.43 0.36 0.57 0.38 0.35 0.26 0.37 0.34 0.64 1.12 1.65 1.42 1.24 1.14 0.96 0.77 0.45 0.40 0.61 0.45 0.71 0.73 0.63 0.59 0.65 0.72 0.94 0.90
0.07 0.09 0.15 0.11 0.09 0.09 0.32 0.29 0.57 0.51 0.80 1.13 0.88 0.74 0.61 0.89 1.18 1.48 1.64 1.46 1.49 1.32 1.47 1.46 1.29 0.96 0.73 0.45 0.56 0.51 0.65 0.66 0.50 0.44 0.14 0.33 1.18 1.63 1.33 1.24 1.18 0.57 0.64 1.06 0.87 1.23 1.12 1.17 1.01 0.98 0.63 0.51 0.49 0.43 0.56 0.49 0.52 0.79 0.63 0.56 0.49 0.41 0.46 0.63 0.98 1.44 1.34 1.31 1.16 1.01 0.79 0.75 0.72 0.97 0.80 0.65 0.46 0.46 0.35 0.58 0.55 0.78 0.78 0.70 0.66
0.11 0.12 0.16 0.16 0.12 0.14 0.11 0.23 0.29 0.36 0.40 0.51 0.40 0.23 0.21 0.40 1.15 0.85 0.48 0.70 1.34 1.54 1.46 1.18 1.05 1.02 1.48 1.36 1.14 1.05 1.21 1.39 1.80 2.14 2.14 2.19 1.26 0.83 1.16 0.78 0.62 0.39 0.62 0.79 0.77 0.75 0.77 0.87 0.61 0.38 0.37 0.35 0.42 0.32 0.47 0.79 0.97 0.60 0.57 0.54 0.66 0.79 0.97 1.43 1.42 1.37 1.45 1.23 1.18 1.24 1.16 1.15 1.05 0.96 0.79 0.84 0.86 0.98 0.85 0.71 0.92 1.27 0.93 0.76 0.64
0.32 0.69 0.93 1.62 1.68 1.36 1.41 1.12 0.49 0.54 0.45 0.81 0.77 0.79 0.94 1.14 0.75 0.71 0.59 0.59 0.46 0.43 0.69 0.95 1.08 1.50 1.46 1.83 2.06 1.65 1.15 1.12 1.33 0.68 0.17 0.24 0.77 1.42 1.58 1.63 1.89 1.75 1.64 1.26 1.02 0.85 0.82 0.80 0.86 0.56 0.47 0.52 0.75 0.88 1.18 0.77 0.70 1.10 1.34 1.47 1.80 1.90 1.55 1.54 1.37 1.39 1.25 1.39 1.33 0.99 0.92 0.94 1.07 1.03 0.82 0.94 1.08 0.95 0.92 0.84 0.95 1.06 0.92 0.82 0.85
0.15 0.32 0.29 0.65 0.99 0.74 0.40 0.78 1.29 1.07 0.69 0.73 1.08 1.49 1.01 0.91 0.90 0.82 1.09 1.07 0.76 0.88 0.77 0.91 1.34 1.97 1.31 0.98 1.11 1.39 1.11 0.95 0.56 0.72 0.91 1.03 0.97 0.62 1.44 1.70 1.52 1.61 1.28 1.25 1.08 0.74 0.78 0.84 1.00 1.32 1.14 1.52 1.34 1.67 1.81 2.12 2.23 1.97 1.58 1.44 1.47 1.61 1.86 2.12 2.12 2.02 2.03 2.22 2.07 1.79 1.51 1.28 1.15 1.33 1.20 1.06 1.00 0.94 0.96 1.01 0.93 0.99 0.90 0.97 1.22
0.66 0.31 0.37 0.42 0.47 0.74 0.58 0.42 0.42 0.81 0.60 0.54 0.59 0.75 0.77 1.03 1.42 1.50 1.30 1.33 1.45 1.21 0.89 0.69 0.58 0.76 1.19 1.06 0.61 0.43 0.39 0.79 1.07 0.90 0.73 0.76 1.05 1.20 1.53 1.45 1.39 1.17 1.33 1.52 1.38 1.22 1.13 1.31 1.75 1.60 1.77 1.24 0.97 0.95 1.07 1.49 1.58 1.41 1.22 1.22 1.16 1.33 1.32 1.25 1.30 1.36 1.29 1.27 1.33 1.42 1.41 1.41 1.39 1.33 1.13 1.09 1.18 1.28 1.32 1.43 1.54 1.56 1.56 1.37 1.20
0.43 0.37 0.34 0.43 0.49 0.47 0.30 0.41 0.45 0.48 0.97 0.80 0.48 0.40 0.58 0.69 1.11 1.55 1.38 0.91 1.02 1.33 1.44 1.60 1.33 1.18 1.21 0.79 0.73 0.59 0.52 0.33 0.54 0.47 0.58 1.10 1.97 2.13 1.90 1.62 1.64 1.48 1.44 1.12 1.22 1.22 1.13 1.11 1.12 1.20 1.21 1.20 1.32 1.20 1.35 1.12 1.07 1.35 1.46 1.32 1.33 1.39 1.48 1.68 1.41 1.44 1.21 1.12 1.09 1.16 1.25 1.39 1.69 1.91 2.10 2.16 2.04 1.96 1.84 1.58 1.62 1.62 1.92 2.03 1.93
0.99 0.43 0.40 0.31 0.41 0.59 0.64 0.41 0.26 0.42 0.56 0.99 1.36 1.65 1.52 1.33 1.27 1.10 1.54 1.93 2.02 1.56 1.22 0.90 0.93 1.45 1.54 1.76 1.74 1.64 1.11 0.86 0.75 0.86 1.37 1.76 1.41 1.30 1.54 1.68 1.60 1.68 1.77 1.41 1.27 1.25 1.44 1.25 1.21 1.15 1.09 1.17 1.19 1.08 1.10 1.18 1.16 1.26 1.51 1.48 1.40 1.46 1.53 1.76 1.75 2.19 2.40 2.42 2.07 1.71 1.33 1.26 1.22 1.29 1.60 1.82 2.14 2.32 2.32 2.16 1.81 1.55 1.44 1.55 1.61
1.00 0.54 0.52 0.54 0.38 0.50 0.75 0.82 0.69 0.38 0.51 0.86 1.38 1.38 1.29 0.75 0.44 0.51 0.80 0.82 0.76 1.18 2.57 2.03 1.37 1.25 1.07 0.99 1.16 1.43 1.55 2.06 2.10 1.52 1.36 1.23 1.38 0.98 0.71 0.83 0.74 0.92 1.05 1.04 0.87 0.83 0.88 0.91 1.23 1.26 1.21 1.03 1.14 1.09 1.26 1.07 1.06 0.95 0.95 1.12 1.05 0.98 0.95 1.19 1.26 1.28 1.34 1.58 1.79 1.92 2.03 2.08 1.93 1.67 1.18 1.06 1.15 1.27 1.38 1.39 1.42 1.47 1.33 1.18 1.05
0.69 0.83 0.73 0.96 0.94 0.89 0.94 0.82 0.89 0.89 0.70 0.73 0.52 0.69 0.44 0.23 0.25 0.52 0.50 0.30 0.26 0.26 0.27 0.61 0.72 0.87 0.71 0.71 0.61 0.65 0.92 1.39 1.61 1.47 1.41 1.19 0.94 0.87 1.10 1.13 0.83 0.67 0.68 0.66 0.77 0.78 0.83 0.82 0.89 0.88 0.84 0.85 0.86 0.86 0.79 1.06 1.19 1.17 1.01 0.94 1.08 1.55 1.88 1.67 1.02 0.88 1.02 1.20 1.23 1.35 1.68 1.79 1.78 1.79 1.83 1.68 1.37 1.04 0.85 0.77 0.81 0.86 0.85 0.82 0.75
0.57 0.88 0.72 0.84 1.01 0.96 1.03 1.03 1.11 0.94 0.72 0.46 0.47 0.33 0.44 0.23 0.15 0.15 0.17 0.17 0.15 0.16 0.20 0.16 0.26 0.28 0.23 0.27 0.28 0.31 0.36 0.47 0.59 0.63 0.71 0.87 0.99 0.88 0.93 1.19 1.46 1.45 1.51 1.33 1.06 0.87 0.79 0.94 0.82 0.86 0.97 0.77 0.70 1.05 1.27 1.07 0.93 1.04 1.66 1.87 1.31 1.06 1.15 1.42 1.48 1.33 1.35 1.11 0.89 0.88 0.81 0.67 0.68 0.73 0.82 0.82 0.83 0.73 0.68 0.65 0.65 0.67 0.71 0.75 0.74
1.30 1.60 1.40 1.26 0.66 0.60 0.66 0.62 0.55 0.38 0.32 0.24 0.28 0.25 0.36 0.35 0.16 0.10 0.09 0.12 0.40 0.16 0.18 0.13 0.13 0.12 0.17 0.09 0.09 0.09 0.09 0.09 0.10 0.19 0.28 0.33 0.58 0.71 0.62 0.79 0.85 0.96 1.15 1.26 1.39 1.41 1.46 1.52 1.15 1.06 1.24 1.28 1.10 0.92 0.95 1.17 1.24 1.08 1.04 1.17 1.32 1.36 1.01 0.77 0.80 0.86 0.85 0.66 0.64 0.50 0.55 0.55 0.59 0.66 0.78 0.77 0.80 0.81 0.78 0.70 0.63 0.59 0.58 0.55 0.54
1.21 0.88 0.87 0.72 0.84 0.77 0.83 0.98 0.87 0.42 0.31 0.41 0.41 0.51 0.34 0.16 0.36 0.55 0.25 0.28 0.39 0.37 0.42 0.46 0.23 0.16 0.06 0.05 0.04 0.04 0.04 0.04 0.03 0.04 0.05 0.06 0.09 0.13 0.17 0.20 0.41 0.62 0.65 0.78 0.81 0.90 0.96 0.90 0.79 0.66 0.65 0.73 0.73 0.61 0.52 0.59 0.65 0.72 0.61 0.58 0.60 0.69 0.78 0.71 0.69 0.58 0.58 0.70 0.67 0.60 0.52 0.45 0.43 0.46 0.44 0.44 0.49 0.48 0.47 0.48 0.47 0.42 0.37 0.33 0.31
0.49 0.92 1.34 1.89 1.22 0.64 0.63 0.40 0.34 0.32 0.26 0.32 0.35 0.32 0.19 0.08 0.07 0.09 0.10 0.17 0.20 0.06 0.06 0.28 0.54 0.22 0.06 0.04 0.03 0.02 0.01 0.01 0.00 0.01 0.01 0.03 0.06 0.07 0.05 0.05 0.04 0.05 0.08 0.12 0.37 0.41 0.59 0.67 0.68 0.59 0.53 0.44 0.46 0.54 0.48 0.33 0.28 0.28 0.30 0.31 0.30 0.28 0.26 0.30 0.31 0.34 0.36 0.31 0.37 0.39 0.41 0.42 0.41 0.36 0.31 0.28 0.23 0.25 0.22 0.20 0.21 0.21 0.20 0.19 0.17
0.10 0.16 0.20 0.21 0.40 0.50 0.22 0.26 0.23 0.24 0.30 0.37 0.17 0.24 0.26 0.22 0.17 0.06 0.05 0.04 0.12 0.28 0.17 0.13 0.26 0.44 0.22 0.05 0.01 0.01 0.01 0.01 0.01 0.01 0.01 0.01 0.03 0.05 0.05 0.04 0.03 0.02 0.03 0.05 0.11 0.19 0.11 0.10 0.17 0.18 0.20 0.22 0.24 0.23 0.24 0.24 0.21 0.19 0.18 0.18 0.14 0.14 0.14 0.13 0.13 0.12 0.13 0.13 0.14 0.13 0.13 0.15 0.17 0.14 0.14 0.14 0.14 0.12 0.12 0.12 0.11 0.10 0.09 0.09 0.08
0.01 0.00 0.02 0.07 0.27 0.82 1.24 1.05 0.70 0.33 0.30 0.37 0.72 0.25 0.37 0.26 0.14 0.23 0.26 0.25 0.23 0.28 0.28 1.15 0.70 0.58 0.69 0.47 0.06 0.02 0.04 0.00 0.02 0.01 0.03 0.03 0.03 0.19 0.27 0.02 0.14 0.03 0.03 0.09 0.11 0.08 0.07 0.06 0.07 0.04 0.03 0.05 0.09 0.14 0.16 0.18 0.20 0.19 0.16 0.12 0.09 0.07 0.07 0.06 0.06 0.05 0.05 0.04 0.03 0.03 0.03 0.03 0.02 0.02 0.01 0.01 0.01 0.01 0.01 0.02 0.02 0.02 0.02 0.02 0.01
0.00 0.00 0.00 0.01 0.01 0.01 0.15 0.22 0.29 0.38 0.45 0.75 0.62 0.40 0.57 0.58 0.33 0.26 0.37 0.31 0.20 0.17 0.11 0.15 0.27 0.57 0.48 0.40 0.37 0.16 0.06 0.03 0.03 0.04 0.05 0.06 0.07 0.11 0.39 0.07 0.03 0.04 0.02 0.01 0.04 0.04 0.07 0.05 0.05 0.11 0.09 0.05 0.04 0.08 0.08 0.11 0.20 0.17 0.24 0.08 0.05 0.05 0.05 0.02 0.03 0.02 0.01 0.01 0.01 0.00 0.00 0.00 0.00 0.00 0.00 0.00 0.00 0.00 0.00 0.00 0.00 0.00 0.00 0.00 0.00
0.11 0.01 0.00 0.00 0.02 0.03 0.02 0.10 0.44 0.15 0.12 0.21 0.60 1.14 0.59 0.55 0.33 0.29 0.22 0.32 0.37 0.33 0.13 0.11 0.12 0.18 0.15 0.10 0.11 0.12 0.20 0.05 0.03 0.06 0.07 0.07 0.09 0.49 0.16 0.09 0.04 0.03 0.04 0.12 0.08 0.08 0.10 0.15 0.11 0.17 0.12 0.08 0.12 0.12 0.12 0.11 0.11 0.09 0.05 0.04 0.02 0.02 0.02 0.01 0.01 0.02 0.01 0.00 0.00 0.01 0.00 0.00 0.00 0.00 0.00 0.00 0.00 0.00 0.00 0.00 0.00 0.00 0.00 0.00 0.00
0.44 0.42 0.42 0.17 0.15 0.33 0.03 0.03 0.11 0.57 0.52 0.86 0.51 0.51 0.47 0.57 0.58 0.40 0.28 0.43 0.53 0.64 0.43 0.41 0.20 0.30 0.28 0.14 0.19 0.16 0.23 0.10 0.04 0.04 0.06 0.04 0.22 0.23 0.19 0.11 0.04 0.07 0.16 0.22 0.17 0.11 0.15 0.19 0.23 0.25 0.33 0.17 0.20 0.14 0.21 0.25 0.22 0.12 0.12 0.07 0.01 0.00 0.01 0.00 0.00 0.00 0.00 0.00 0.00 0.00 0.00 0.00 0.00 0.00 0.00 0.00 0.00 0.00 0.00 0.00 0.00 0.00 0.00 0.00 0.00
0.38 0.38 0.62 0.51 0.74 0.69 1.07 0.71 0.66 0.41 0.14 0.07 0.12 0.24 0.70 0.91 0.82 1.16 0.94 0.90 0.88 0.51 0.62 0.63 0.71 0.70 0.56 0.40 0.22 0.22 0.17 0.16 0.32 0.11 0.08 0.21 0.25 0.26 0.17 0.12 0.07 0.04 0.06 0.09 0.15 0.09 0.24 0.37 0.38 0.24 0.32 0.36 0.23 0.10 0.11 0.19 0.19 0.12 0.10 0.07 0.03 0.00 0.00 0.00 0.02 0.00 0.00 0.00 0.01 0.00 0.00 0.00 0.00 0.00 0.00 0.00 0.00 0.00 0.00 0.00 0.00 0.00 0.00 0.00 0.00